SL-14 R/B, 23793

Orbit data source: Space-Track

SL-14 R/B, 23793 is space debris in LEO originally from a launch on Mon, 19 Feb 1996 UTC launched from the Plesetsk Missile And Space Complex (PKMTR). Debris objects in space refer to the collection of defunct objects orbiting the Earth. Examples of debris include non-operational satellites, rocket bodies, and fragments generated from explosions, collisions, or faulty payload assembly.

Loading next visibility...
Identifier
23793, 1996-009G
Orbit
LEO
Country
Flag of CISCIS
Related business
Manufacturer
Yuzhnoe
Mission
Spacecraft
Bus & Motor
S5M, Unknown motor
Mass
1,600 kg wet, 1,600 kg dry
Launch date (UTC)
1996-02-19 (30 years ago)
Launch vehicle
Unknown
Launch site
Plesetsk Missile And Space Complex (PKMTR)
Object type
Payload
Rocket body
Debris
Shape & HBR
Cyl, 1.4 m
Radar Cross Section
7.351 m², Large (>1 m²)

Expand to show TLE details & history
Last TLE update: 14 hours ago

TLE from 14 hours ago
0 SL-14 R/B
1 23793U 96009G   26194.64795888  .00000021  00000-0  65232-4 0  9990
2 23793  82.5686  31.9246 0044029 270.5850 153.5842 12.55091538392676
Epoch: 2026-07-13T15:33Z
TLE epoch observation values (Epoch: 2026-07-13T15:33:03.647Z)
Latitude
63.48879°
Longitude
-117.78794°
Altitude
1,485.033 km
Speed
7.113 km/s
True Right ascension
03h 08m 01s
True Declination
63° 21' 50"
Sunlit
Object was in daylight at epoch
Visualization orbit readout
Latitude
Unknown
Longitude
Unknown
Altitude
Unknown
Speed
Unknown
Apparent Right ascension
Unknown
Apparent Declination
Unknown
Sunlit
N/A
Visualization observer readout
Local Sidereal Time
17:36:25
Azimuth
Unknown
Elevation
Unknown
Doppler factor
Unknown
Orbital elements
Apogee altitude
1,475.027 km
Perigee altitude
1,406.177 km
Semi-major axis
7,818.739 km
Eccentricity
0.0044
Inclination
82.5686°
RAAN
31.9246°
Arg. of periapsis
270.585°
True anomaly
153.80756°
Mean anomaly
153.5842°
Eccentric anomaly
153.69599°
Mean motion
3.13934 °/min
Orbital period
114.67 mins
BSTAR
0.000065232
Loading maneuver chart data...
Computing Atmospheric mass density...
Loading historical data...
Loading historical data...
Loading historical data...
Loading historical data...
Loading historical data...
Loading historical data...
Loading historical data...

Documentation

Showing up to 5 results
|